This is the latest recevied weather packets stored in our database for station/object SQ7ACP-3. If no packets are shown the sender has not sent any weather packets the latest 10 day(s).
| Time | Temp. | Humidity | Pressure | Rain* | Wind** | Luminosity | Snow |
|---|---|---|---|---|---|---|---|
| 1777413232 | 5° C | 56% | 1024 hPa | 0 mm | - | - | - |
| 1777412633 | 5° C | 56% | 1024 hPa | 0 mm | - | - | - |
| 1777412020 | 5.56° C | 56% | 1024 hPa | 0 mm | - | - | - |
| 1777411408 | 5.56° C | 55% | 1023.9 hPa | 0 mm | - | - | - |
| 1777410808 | 5.56° C | 55% | 1023.9 hPa | 0 mm | - | - | - |
| 1777410195 | 5.56° C | 54% | 1023.9 hPa | 0 mm | - | - | - |
| 1777409583 | 5.56° C | 54% | 1023.8 hPa | 0 mm | - | - | - |
| 1777408970 | 5.56° C | 56% | 1023.7 hPa | 0 mm | - | - | - |
| 1777408358 | 5° C | 60% | 1023.6 hPa | 0 mm | - | - | - |
| 1777407745 | 5° C | 63% | 1023.6 hPa | 0 mm | - | - | - |
| 1777407145 | 5.56° C | 65% | 1023.4 hPa | 0 mm | - | - | - |
| 1777406533 | 5.56° C | 60% | 1023.3 hPa | 0 mm | - | - | - |
| 1777405922 | 6.11° C | 59% | 1023.1 hPa | 0 mm | - | - | - |
| 1777405321 | 6.11° C | 58% | 1023.1 hPa | 0 mm | - | - | - |
| 1777404720 | 6.11° C | 57% | 1023.1 hPa | 0 mm | - | - | - |
| 1777404108 | 6.67° C | 58% | 1023.1 hPa | 0 mm | - | - | - |
| 1777403496 | 6.67° C | 56% | 1023.1 hPa | 0 mm | - | - | - |
| 1777402895 | 6.67° C | 55% | 1023.1 hPa | 0 mm | - | - | - |
| 1777401071 | 7.22° C | 50% | 1023.1 hPa | 0 mm | - | - | - |
| 1777400462 | 7.22° C | 47% | 1023 hPa | 0 mm | - | - | - |
| 1777399860 | 7.78° C | 45% | 1022.9 hPa | 0 mm | - | - | - |
| 1777399247 | 7.78° C | 44% | 1022.8 hPa | 0 mm | - | - | - |
| 1777398641 | 8.33° C | 42% | 1022.9 hPa | 0 mm | - | - | - |
| 1777397420 | 8.89° C | 41% | 1022.8 hPa | 0 mm | - | - | - |
| 1777396820 | 8.89° C | 39% | 1022.7 hPa | 0 mm | - | - | - |
* Rain latest hour (hover to see other rain measurements)
** Current wind speed in m/s (hover to see current wind gust speed)